Location: Kumla
(59.1265°N, 15.1401°E)
Time: 21:45:47
(UTC+01:00)

Vanguard 1 - Pass Details

Date: 07 December 2023
Orbit: 653 x 3825 km, 34.3° (Epoch: 04 March)

Event Time Altitude Azimuth Distance (km) Brightness Sun altitude
Rises 16:17:16 0° 195° (SSW) 5,526 14.7 -8.2°
Reaches altitude 10° 16:22:04 10° 178° (S) 5,052 14.1 -8.7°
Maximum altitude 16:31:33 19° 140° (SE) 5,157 13.6 -9.8°
Drops below altitude 10° 16:43:41 10° 105° (ESE) 6,664 13.8 -11.1°
Enters shadow 16:49:39 - 94° (E) 7,608 14.1 -11.8°
